Tracking 27422 objects as of 29-May-2023
HD Live streaming from Space Station
objects crossing your sky now

FREGAT DEB

Track FREGAT DEB now!
10-day predictions


NORAD ID: 45816
Int'l Code: 2011-037BA
Perigee: 445.3 km
Apogee: 3,539.2 km
Inclination: 51.5 °
Period: 126.9 minutes
Semi major axis: 8363 km
RCS: Unknown
Launch date: July 18, 2011
Source: Commonwealth of Independent States (former USSR) (CIS)
Launch site: TYURATAM MISSILE AND SPACE COMPLEX (TTMTR)

Note: This is SATELLITE DEBRIS
Your satellite tracking list
Your tracking list is empty




NASA's NSSDC Master Catalog

Two Line Element Set (TLE):
1 45816U 11037BA  23149.37240728  .00012263  00000-0  28786-2 0  9995
2 45816  51.4859 154.5078 1849723 312.1303  33.6129 11.35113896122585
Source of the keplerian elements: AFSPC